EN

Hourly Weather Odcinek

Today, 16 May, Sunday

Time Temperature Precipitation Wind Pressure Humidity
00:00 +12°C° 0.3 mm 2 mps 737 mmHg 93%
01:00 +12°C° 0.3 mm 2 mps 736 mmHg 93%
02:00 +12°C° 0.8 mm 2 mps 736 mmHg 94%
03:00 +12°C° 0.8 mm 2 mps 736 mmHg 94%
04:00 +12°C° 0.8 mm 2 mps 736 mmHg 95%
05:00 +12°C° 1.3 mm 2 mps 736 mmHg 95%
06:00 +11°C° 1.3 mm 3 mps 736 mmHg 94%
07:00 +12°C° 1.3 mm 3 mps 736 mmHg 93%
08:00 +12°C° 0.3 mm 3 mps 736 mmHg 89%
09:00 +13°C° 0.3 mm 3 mps 736 mmHg 85%
10:00 +14°C° 0.3 mm 3 mps 736 mmHg 80%
11:00 +14°C° 0.3 mm 3 mps 736 mmHg 76%
12:00 +16°C° 0.3 mm 3 mps 736 mmHg 73%
13:00 +16°C° 0.3 mm 3 mps 736 mmHg 69%
14:00 +16°C° 0.2 mm 3 mps 736 mmHg 68%
15:00 +16°C° 0.2 mm 3 mps 736 mmHg 68%
16:00 +16°C° 0.2 mm 2 mps 736 mmHg 67%
17:00 +15°C° 0.1 mm 2 mps 736 mmHg 72%
18:00 +14°C° 0.1 mm 2 mps 736 mmHg 76%
19:00 +13°C° 0.1 mm 2 mps 736 mmHg 80%
20:00 +13°C° 0 mm 2 mps 736 mmHg 83%
21:00 +12°C° 0 mm 2 mps 736 mmHg 86%
22:00 +10°C° 0 mm 3 mps 736 mmHg 89%
23:00 +9°C° 0 mm 3 mps 736 mmHg 90%

Tomorrow, 17 May, Monday

Time Temperature Precipitation Wind Pressure Humidity
00:00 +9°C° 0 mm 3 mps 736 mmHg 91%
01:00 +9°C° 0 mm 2 mps 736 mmHg 92%
02:00 +8°C° 0 mm 2 mps 736 mmHg 92%
03:00 +8°C° 0 mm 2 mps 736 mmHg 91%
04:00 +8°C° 0 mm 2 mps 736 mmHg 91%
05:00 +9°C° 0 mm 3 mps 736 mmHg 88%
06:00 +11°C° 0 mm 3 mps 736 mmHg 84%
07:00 +12°C° 0 mm 3 mps 736 mmHg 81%
08:00 +12°C° 0.2 mm 3 mps 736 mmHg 82%
09:00 +12°C° 0.2 mm 3 mps 736 mmHg 82%
10:00 +12°C° 0.2 mm 3 mps 736 mmHg 83%
11:00 +12°C° 1.2 mm 3 mps 736 mmHg 85%
12:00 +11°C° 1.2 mm 3 mps 736 mmHg 87%
13:00 +11°C° 1.2 mm 3 mps 736 mmHg 90%
14:00 +11°C° 1.1 mm 3 mps 736 mmHg 90%
15:00 +11°C° 1.1 mm 3 mps 736 mmHg 91%
16:00 +10°C° 1.1 mm 3 mps 736 mmHg 91%
17:00 +10°C° 0.6 mm 2 mps 736 mmHg 92%
18:00 +10°C° 0.6 mm 2 mps 736 mmHg 93%
19:00 +10°C° 0.6 mm 2 mps 736 mmHg 94%
20:00 +10°C° 0.6 mm 3 mps 736 mmHg 94%
21:00 +10°C° 0.6 mm 3 mps 736 mmHg 94%
22:00 +10°C° 0.6 mm 3 mps 736 mmHg 94%
23:00 +10°C° 0.4 mm 4 mps 736 mmHg 94%

Day after tomorrow, 18 May, Tuesday

Time Temperature Precipitation Wind Pressure Humidity
00:00 +8°C° 0.4 mm 5 mps 736 mmHg 93%
01:00 +8°C° 0.4 mm 6 mps 736 mmHg 93%
02:00 +8°C° 0.1 mm 6 mps 736 mmHg 92%
03:00 +8°C° 0.1 mm 6 mps 737 mmHg 92%
04:00 +7°C° 0.1 mm 6 mps 737 mmHg 91%
05:00 +8°C° 0 mm 6 mps 737 mmHg 90%
06:00 +8°C° 0 mm 6 mps 737 mmHg 88%
07:00 +9°C° 0 mm 6 mps 737 mmHg 86%
08:00 +9°C° 0.1 mm 6 mps 737 mmHg 85%
09:00 +10°C° 0.1 mm 6 mps 738 mmHg 83%
10:00 +10°C° 0.1 mm 6 mps 738 mmHg 82%
11:00 +11°C° 0.3 mm 7 mps 738 mmHg 78%
12:00 +12°C° 0.3 mm 7 mps 738 mmHg 75%
13:00 +14°C° 0.3 mm 7 mps 738 mmHg 71%
14:00 +14°C° 0.2 mm 7 mps 738 mmHg 70%
15:00 +14°C° 0.2 mm 7 mps 738 mmHg 69%
16:00 +15°C° 0.2 mm 7 mps 738 mmHg 68%
17:00 +13°C° 0.2 mm 6 mps 738 mmHg 73%
18:00 +12°C° 0.2 mm 5 mps 738 mmHg 79%
19:00 +11°C° 0.2 mm 4 mps 739 mmHg 85%
20:00 +10°C° 0 mm 4 mps 739 mmHg 88%
21:00 +8°C° 0 mm 4 mps 739 mmHg 91%
22:00 +7°C° 0 mm 4 mps 740 mmHg 94%
23:00 +7°C° 0.1 mm 4 mps 740 mmHg 95%

19 May, Wednesday

Time Temperature Precipitation Wind Pressure Humidity
00:00 +7°C° 0.1 mm 4 mps 740 mmHg 95%
01:00 +7°C° 0.1 mm 5 mps 741 mmHg 96%
02:00 +7°C° 0 mm 5 mps 741 mmHg 96%
03:00 +7°C° 0 mm 5 mps 741 mmHg 96%
04:00 +6°C° 0 mm 4 mps 741 mmHg 97%
05:00 +7°C° 0 mm 5 mps 741 mmHg 94%
06:00 +8°C° 0 mm 5 mps 742 mmHg 91%
07:00 +8°C° 0 mm 5 mps 742 mmHg 88%
08:00 +10°C° 0.3 mm 5 mps 742 mmHg 82%
09:00 +11°C° 0.3 mm 6 mps 743 mmHg 76%
10:00 +13°C° 0.3 mm 6 mps 743 mmHg 71%
11:00 +11°C° 0.4 mm 6 mps 743 mmHg 74%
12:00 +11°C° 0.4 mm 6 mps 743 mmHg 76%
13:00 +11°C° 0.4 mm 6 mps 743 mmHg 79%
14:00 +13°C° 0.2 mm 5 mps 743 mmHg 73%
15:00 +13°C° 0.2 mm 5 mps 743 mmHg 67%
16:00 +14°C° 0.2 mm 4 mps 743 mmHg 61%
17:00 +13°C° 0.2 mm 4 mps 743 mmHg 68%
18:00 +11°C° 0.2 mm 3 mps 743 mmHg 74%
19:00 +10°C° 0.2 mm 3 mps 744 mmHg 81%
20:00 +9°C° 0 mm 3 mps 744 mmHg 84%
21:00 +8°C° 0 mm 3 mps 744 mmHg 88%
22:00 +7°C° 0 mm 3 mps 744 mmHg 92%
23:00 +7°C° 0 mm 3 mps 744 mmHg 92%

20 May, Thursday

Time Temperature Precipitation Wind Pressure Humidity
00:00 +6°C° 0 mm 4 mps 745 mmHg 92%
01:00 +6°C° 0 mm 4 mps 745 mmHg 93%
02:00 +5°C° 0 mm 4 mps 745 mmHg 93%
03:00 +5°C° 0 mm 4 mps 745 mmHg 94%
04:00 +5°C° 0 mm 4 mps 745 mmHg 94%
05:00 +6°C° 0 mm 5 mps 745 mmHg 90%
06:00 +8°C° 0 mm 5 mps 745 mmHg 85%
07:00 +9°C° 0 mm 6 mps 745 mmHg 81%
08:00 +10°C° 0.2 mm 6 mps 745 mmHg 75%
09:00 +11°C° 0.2 mm 6 mps 745 mmHg 70%
10:00 +13°C° 0.2 mm 6 mps 745 mmHg 64%
11:00 +13°C° 0.2 mm 6 mps 745 mmHg 62%
12:00 +14°C° 0.2 mm 6 mps 745 mmHg 60%
13:00 +14°C° 0.2 mm 6 mps 744 mmHg 58%
14:00 +15°C° 0.1 mm 6 mps 744 mmHg 57%
15:00 +15°C° 0.1 mm 5 mps 744 mmHg 55%
16:00 +15°C° 0.1 mm 4 mps 743 mmHg 54%
17:00 +14°C° 0 mm 4 mps 743 mmHg 60%
18:00 +13°C° 0 mm 3 mps 743 mmHg 67%
19:00 +11°C° 0 mm 3 mps 742 mmHg 73%
20:00 +11°C° 0 mm 3 mps 742 mmHg 74%
21:00 +11°C° 0 mm 3 mps 742 mmHg 76%
22:00 +10°C° 0 mm 3 mps 742 mmHg 78%
23:00 +11°C° 0.1 mm 4 mps 741 mmHg 78%

21 May, Friday

Time Temperature Precipitation Wind Pressure Humidity
00:00 +10°C° 0.1 mm 5 mps 741 mmHg 78%
01:00 +10°C° 0.1 mm 6 mps 740 mmHg 78%
02:00 +10°C° 0 mm 6 mps 740 mmHg 78%
03:00 +10°C° 0 mm 6 mps 739 mmHg 78%
04:00 +10°C° 0 mm 7 mps 738 mmHg 79%
05:00 +11°C° 0 mm 7 mps 738 mmHg 76%
06:00 +12°C° 0 mm 8 mps 738 mmHg 73%
07:00 +13°C° 0 mm 8 mps 738 mmHg 70%
08:00 +15°C° 0 mm 9 mps 739 mmHg 65%
09:00 +15°C° 0 mm 9 mps 739 mmHg 60%
10:00 +16°C° 0 mm 10 mps 739 mmHg 55%
11:00 +16°C° 0 mm 10 mps 739 mmHg 53%
12:00 +16°C° 0 mm 10 mps 740 mmHg 51%
13:00 +17°C° 0 mm 10 mps 740 mmHg 50%
14:00 +16°C° 0.1 mm 9 mps 740 mmHg 51%
15:00 +16°C° 0.1 mm 8 mps 740 mmHg 53%
16:00 +16°C° 0.1 mm 7 mps 740 mmHg 55%
17:00 +15°C° 0 mm 7 mps 740 mmHg 58%
18:00 +14°C° 0 mm 6 mps 740 mmHg 60%
19:00 +13°C° 0 mm 6 mps 740 mmHg 63%
20:00 +11°C° 0 mm 6 mps 740 mmHg 64%
21:00 +11°C° 0 mm 6 mps 740 mmHg 65%
22:00 +10°C° 0 mm 6 mps 740 mmHg 65%
23:00 +9°C° 0 mm 6 mps 741 mmHg 71%
Show more

We Need Your Consent

Meteoprog and our Service Providers may store and access personal data such as cookies, device identifiers or other similar technologies on your device and process such data to personalise content and ads, as well as provide social media features and to analyse the traffic.

  • Store and/or access information on your device

    Cookies, device identifiers or other information can be stored or accessed on your device for the purposes indicated above.

  • Personalised ads and content, ad and content measurement, audience insights, and products development

    Ads and content can be personalised based on a profile. More data can be added to better personalise ads and content. Ad and content performance can be measured. Insights about the audience who saw the ads and content can be derived. Such data can be used to develop or improve user’s experience, systems and software.

By clicking ‘I Agree’ you will allow the use of indicated cookies, device identifiers, web beacons or other similar technologies. Your settings can be changed in the browser on your device.

For certain purposes, legitimate interests may be relied on, rather than consent. You can read more about this in our Privacy and Cookie Policy.